Theta_e
302 302 302 303 302 302 301 301 300 299 300 299 300 302 304 303 304 304 305 305 305 305 305 305 305 306 304
300 299 299 299 299 298 298 297 296 296 296 296 297 299 301 301 302 302 302 303 303 303 302 302 303 303 303
298 297 297 296 296 296 295 295 295 295 294 294 294 296 298 298 299 300 300 301 299 299 300 301 301 300 299
297 298 297 296 296 295 295 295 295 294 293 293 293 294 295 295 296 297 297 297 296 296 297 299 298 297 298
298 298 297 297 295 295 294 294 294 293 293 293 293 292 292 292 292 293 293 293 294 295 296 296 296 295 295
298 297 296 294 294 293 293 293 293 292 292 291 291 291 291 292 292 292 292 292 292 294 295 296 296 295 295
296 296 295 293 293 292 292 292 292 291 290 290 290 290 290 291 291 291 291 291 291 293 294 295 295 295 296
295 294 294 293 292 291 291 290 290 290 289 289 289 289 289 290 290 290 290 290 291 292 293 294 294 294 293
293 293 293 292 291 290 290 290 289 289 288 288 288 288 288 289 290 290 290 290 290 291 292 293 294 294 293
293 293 292 291 291 290 289 289 288 288 288 287 287 287 288 288 289 288 289 288 289 290 290 292 294 296 293
292 292 292 290 290 289 289 288 287 287 287 286 286 286 287 287 288 287 288 288 287 288 289 292 294 295 295
292 292 292 292 291 289 288 287 286 286 285 285 285 285 286 286 287 287 286 287 287 287 286 289 293 295 296
290 290 290 290 291 289 287 286 285 285 284 284 284 284 285 285 286 286 285 285 285 286 286 287 291 292 292
290 290 290 290 290 288 287 285 284 283 283 282 282 283 284 284 285 284 283 282 284 285 283 285 283 287 289
288 288 288 287 288 287 285 284 283 282 282 282 282 282 283 284 284 284 283 281 280 284 284 282 280 279 285
287 287 286 286 285 284 283 283 282 282 281 281 281 282 283 284 284 284 283 282 281 280 283 284 285 285 281
Wind_Speed
11 12 13 15 15 16 16 16 15 15 16 18 18 21 24 23 24 25 25 25 25 26 24 24 26 27 19
6 11 12 13 13 14 14 16 14 14 16 17 18 21 22 24 24 24 25 25 26 26 25 25 25 26 15
5 5 6 8 10 11 12 14 11 9 12 14 15 20 22 22 24 24 25 25 24 23 24 25 25 11 16
3 5 5 5 6 8 9 11 8 10 10 12 14 18 20 21 21 23 22 22 20 14 13 18 11 16 14
3 3 3 4 4 5 8 10 9 8 9 9 8 9 11 16 11 15 15 12 17 14 14 14 14 14 10
1 3 4 4 4 5 7 11 9 7 9 9 8 10 10 10 14 13 11 15 17 17 18 18 18 15 10
1 2 3 4 4 5 6 8 8 8 9 9 9 9 10 11 12 13 14 14 16 16 17 18 18 16 15
2 3 3 3 4 5 5 7 9 8 9 9 9 10 10 11 12 12 13 14 14 15 17 18 18 12 14
4 2 2 4 4 5 5 7 10 10 10 11 9 10 11 11 15 13 13 13 14 14 18 17 15 12 13
4 2 2 3 4 4 5 6 10 10 11 10 9 9 11 11 11 12 13 13 14 15 16 16 14 11 12
5 3 2 3 3 4 5 6 10 10 11 10 8 9 12 10 10 12 13 14 14 15 16 16 14 11 8
3 3 3 2 1 3 4 6 9 8 10 10 8 10 10 9 10 11 14 14 14 15 17 16 12 10 7
4 4 3 1 0 2 5 7 8 9 10 10 8 9 10 10 12 13 12 17 13 14 14 15 13 13 15
4 2 1 0 1 2 3 5 7 9 9 9 10 9 11 9 12 13 13 12 12 13 11 15 11 10 14
6 4 3 3 3 1 4 4 6 8 9 10 10 9 9 9 9 11 12 14 11 12 16 8 10 10 18
7 5 4 1 0 2 3 4 5 7 9 9 9 9 9 8 10 10 10 10 11 11 10 10 11 12 11
Wind_Direction
44 37 36 33 30 28 22 16 9 7 4 2 357 358 356 348 347 347 340 338 335 332 329 321 320 318 311
47 37 35 30 25 22 17 10 3 4 359 357 357 358 349 349 347 344 342 338 336 332 326 322 322 313 316
53 46 33 22 24 19 10 6 0 359 355 349 352 350 346 347 345 340 340 338 335 329 326 327 325 321 317
49 33 17 18 19 19 10 3 359 354 354 346 353 348 345 341 338 337 337 336 338 333 325 327 323 316 310
45 14 12 21 13 9 12 4 355 354 353 352 348 347 342 341 337 335 339 341 336 331 323 322 317 312 304
42 26 25 20 12 13 9 6 357 356 353 350 347 345 343 338 335 339 336 334 333 325 322 320 318 316 306
68 38 33 24 22 11 9 11 0 353 352 347 343 345 341 339 336 335 336 332 327 325 322 323 324 316 313
110 58 35 25 17 17 13 6 4 354 350 346 342 347 344 339 334 333 332 331 327 328 324 327 322 327 314
141 115 62 34 20 18 7 5 4 359 350 343 344 347 348 337 334 333 334 336 329 328 327 327 322 328 320
157 150 88 50 33 20 7 357 1 356 352 340 345 349 344 341 339 340 337 337 334 332 330 325 327 325 328
172 163 116 73 41 25 8 2 358 351 349 342 344 347 345 342 344 341 337 337 334 337 330 320 324 321 328
178 188 191 171 72 22 16 8 353 351 350 346 343 350 348 342 345 344 341 338 337 342 326 325 313 326 340
193 208 217 232 253 21 13 3 357 355 358 349 347 349 351 347 343 350 351 338 341 346 327 330 324 329 3
187 188 233 251 146 9 360 4 6 360 360 354 351 352 351 342 346 355 357 341 336 348 336 322 338 337 339
174 169 168 181 195 219 0 358 4 1 7 0 351 355 350 347 348 354 355 349 337 339 351 347 335 343 325
177 175 180 142 20 35 350 347 356 9 9 358 353 0 354 348 351 352 348 345 344 340 338 349 335 317 333